Overview Statistics Trail Chart Weather Telemetry Raw packets
 

This is the latest recevied weather packets stored in our database for station/object N9DMT-13. If no packets are shown the sender has not sent any weather packets the latest 10 day(s).

<< 5 6 7 8 9 10 11 >>
Time Temp. Humidity Pressure Rain* Wind** Luminosity Snow
1777826094 18.33° C 44% 974.7 hPa 0 mm - - -
1777825793 18.89° C 45% 974.9 hPa 0 mm - - -
1777825492 18.89° C 44% 974.9 hPa 0 mm - - -
1777825191 18.33° C 46% 974.9 hPa 0 mm - - -
1777824890 18.33° C 45% 975.2 hPa 0 mm - - -
1777824590 17.78° C 45% 975.1 hPa 0 mm - - -
1777824289 17.22° C 45% 975.3 hPa 0 mm - - -
1777823988 17.22° C 47% 975.1 hPa 0 mm - - -
1777823687 17.22° C 45% 975.3 hPa 0 mm - - -
1777823386 17.22° C 47% 975.1 hPa 0 mm - - -
1777823086 16.67° C 49% 975.4 hPa 0 mm - - -
1777822785 16.11° C 49% 975.4 hPa 0 mm - - -
1777822484 15.56° C 48% 975.4 hPa 0 mm - - -
1777822184 16.11° C 46% 975.6 hPa 0 mm - - -
1777821883 16.67° C 46% 975.7 hPa 0 mm - - -
1777821593 16.67° C 46% 975.5 hPa 0 mm - - -
1777821281 16.67° C 45% 975.7 hPa 0 mm - - -
1777820981 16.11° C 45% 975.7 hPa 0 mm - - -
1777820680 16.11° C 45% 975.7 hPa 0 mm - - -
1777820379 16.11° C 47% 975.7 hPa 0 mm - - -
1777820079 16.67° C 44% 976 hPa 0 mm - - -
1777819778 16.11° C 47% 975.9 hPa 0 mm - - -
1777819477 16.11° C 49% 975.7 hPa 0 mm - - -
1777819177 16.11° C 49% 975.7 hPa 0 mm - - -
1777818893 16.11° C 52% 975.9 hPa 0 mm - - -

* Rain latest hour (hover to see other rain measurements)
** Current wind speed in m/s (hover to see current wind gust speed)